ATLAS AGENA R/B, 27785

Orbit data source: Space-Track

ATLAS AGENA R/B, 27785 is space debris in GEO originally from a launch on Tue, 06 Aug 1968 UTC launched from the Air Force Eastern Test Range (AFETR). Debris objects in space refer to the collection of defunct objects orbiting the Earth. Examples of debris include non-operational satellites, rocket bodies, and fragments generated from explosions, collisions, or faulty payload assembly.

Not visible in the next 10 days
Identifier
27785, 1968-063B
Orbit
GEO
Country
Flag of USUS
Related business
Manufacturer
LMSC
Mission
Spacecraft
Bus & Motor
AGENA D, Unknown motor
Mass
~555 kg wet, 555 kg dry
Launch date (UTC)
1968-08-06 (58 years ago)
Launch vehicle
Unknown
Launch site
Air Force Eastern Test Range (AFETR)
Object type
Payload
Rocket body
Debris
Shape & HBR
Unknown
Radar Cross Section
RCS unknown

Expand to show TLE details & history
Last TLE update: 1 day ago

TLE from 1 day ago
0 ATLAS AGENA R/B
1 27785U 68063B   26120.00395885 -.00000027  00000-0  00000-0 0  9991
2 27785   4.5072 266.0095 1015269 265.7630  82.4266  1.01775641 25894
Epoch: 2026-04-30T00:05Z
TLE epoch observation values (Epoch: 2026-04-30T00:05:42.044Z)
Latitude
0.00002°
Longitude
46.45688°
Altitude
35,217.686 km
Speed
3.101 km/s
True Right ascension
17h 43m 21s
True Declination
0° 00' 00"
Sunlit
Object was in daylight at epoch
Visualization orbit readout
Latitude
Unknown
Longitude
Unknown
Altitude
Unknown
Speed
Unknown
Apparent Right ascension
Unknown
Apparent Declination
Unknown
Sunlit
N/A
Visualization observer readout
Local Sidereal Time
11:49:39
Azimuth
Unknown
Elevation
Unknown
Doppler factor
Unknown
Orbital elements
Apogee altitude
39,609.987 km
Perigee altitude
31,132.606 km
Semi-major axis
41,749.433 km
Eccentricity
0.10153
Inclination
4.5072°
RAAN
266.0095°
Arg. of periapsis
265.763°
True anomaly
94.07438°
Mean anomaly
82.4266°
Eccentric anomaly
88.24092°
Mean motion
0.25443 °/min
Orbital period
1,414.93 mins
BSTAR
0
Loading maneuver chart data...
Computing Atmospheric mass density...
Loading historical data...
Loading historical data...
Loading historical data...
Loading historical data...
Loading historical data...
Loading historical data...
Loading historical data...
Other satellites on launch #63 in the year 1968 (1968-08-06 UTC)

Documentation

Showing up to 5 results
|